Location: Saratoga Springs
(43.0831°N, 73.7850°W)
Time: 17:46:39
(UTC-04:00)

Vanguard 2 - Pass Details

Date: 22 April 2024
Orbit: 553 x 2914 km, 32.9° (Epoch: 19 May)

Event Time Altitude Azimuth Distance (km) Brightness Sun altitude
Rises 01:26:01 0° 224° (SW) 5,346 - -34.1°
Reaches altitude 10° 01:29:23 10° 217° (SW) 4,637 - -33.9°
Exits shadow 01:41:50 42° 154° (SSE) 3,449 10.4 -33.5°
Maximum altitude 01:42:06 42° 152° (SSE) 3,458 10.4 -33.4°
Drops below altitude 10° 01:57:57 10° 90° (E) 5,733 12.1 -32.6°
Sets 02:02:39 0° 85° (E) 6,682 12.6 -32.3°
